Location: Chandolas
(44.4033°N, 4.2533°E)
Time: 03:02:49
(UTC+00:00)

Cosmos 2100 Rocket - Pass Details

Date: 15 November 2019
Orbit: 955 x 1001 km, 82.9° (Epoch: 05 December)

Event Time Altitude Azimuth Distance (km) Brightness Sun altitude
Rises 05:31:50 0° 204° (SSW) 3,656 6.9 -12.0°
Reaches altitude 10° 05:34:27 10° 210° (SSW) 2,706 6.2 -11.6°
Maximum altitude 05:40:23 47° 284° (WNW) 1,258 4.2 -10.5°
Drops below altitude 10° 05:46:19 10° 357° (N) 2,700 6.1 -9.5°
Sets 05:48:56 0° 4° (N) 3,648 6.9 -9.1°
